Weather in Novomyrhorod

Ukraine / Kirovohrad Region     48˚48′00″N   31˚39′04″E
temp.,
°C
wind,
m/s
gust,
m/s
humid.,
%
clouds,
%
prec.,
mm/h
press.,
hPa
HPBL,
m
2 december, wed
wed223:00ene3697100 0.1 1026365
02:00e3597100 0.3 1026287
05:00ene3594100 0.1 1026288
08:00+1˚e3597100 0.3 1026213
11:00+1˚e4695100 0.3 1027305
14:00+2˚ese359199 0.3 1026373
17:00ese3494100 0.1 1027256
20:00ese3589100 0.1 1027335
3 december, thu
thu323:00−1˚e249778 0.0 1028144
02:00e239384 0.0 1027181
05:00e3493100 0.0 1026227
08:00ese3592100 0.0 1026244
11:00+2˚ese3588100 0.0 1026306
14:00+3˚ese468994 0.0 1025340
17:00+3˚ese51093100 0.0 1024383
20:00+4˚ese61191100 0.2 1024425
4 december, fri
fri423:00+4˚se6119199 0.0 1024458
02:00+4˚se61091100 0.1 1024443
05:00+4˚se5992100 0.0 1023352
08:00+3˚se6109197 0.0 1024376
11:00+4˚se6108599 0.0 1025417
14:00+4˚ese6108399 0.0 1024426
17:00+3˚ese7118869 0.0 1025477
20:00+3˚se7128684 0.0 1025569
5 december, sat
sat523:00+3˚se6108699 0.0 1026540
02:00+2˚ese61086100 0.0 1026524
05:00+1˚ese71087100 0.0 1026529
08:00+1˚ese6988100 0.0 1027526
11:00+1˚ese6980100 0.0 1028529
14:00+3˚ese597295 0.0 1028560
17:00+1˚e5117917 0.0 1028511
20:00ese512808 0.0 1029555
6 december, sun
sun623:00−1˚ese512780 0.0 1029464
02:00−2˚ese511620 0.0 1030429
05:00−3˚ese510610 0.0 1030434
08:00−3˚ese510600 0.0 1030433
11:00−1˚ese610530 0.0 1030519
14:00+1˚ese610530 0.0 1029637
17:00−2˚e512590 0.0 1029428
20:00−2˚ese614470 0.0 1030455